Home > Weather > Centennial > Past weeks

Flag for USA Past Weather in Centennial, Colorado, USA — Yesterday and Last 2 Weeks

Now
84 °F

Broken clouds.


Feels Like: 81 °F
Forecast: 63 / 87 °F
Wind: 7 mph from Southwest

Location: Centennial Airport

Current Time: Jul 26, 2016 at 7:54:18 PM

Latest Report: Jul 26, 2016 at 6:53 PM


Visibility: 10 mi

Pressure: 29.91 "Hg (24.45 "Hg at 1781m altitude)

Humidity: 17%

Dew Point: 35 °F

Location of CentennialLocation

Past Weather in Centennial — Graph

°F

Centennial Temperature Yesterday

Maximum temperature yesterday: 93 °F (at 3:53 PM)
Minimum temperature yesterday: 58 °F (at 2:53 AM)
Average temperature yesterday: 76 °F

High & Low Weather Summary for the Past Weeks

 TemperatureHumidityPressure
High94 °F (Jul 16, 2:53 PM)82% (Jul 15, 6:53 PM)30.24 "Hg (Jul 15, 6:53 PM)
Low57 °F (Jul 12, 2:53 AM)7% (Jul 16, 3:53 PM)29.69 "Hg (Jul 16, 5:53 PM)
Average76 °F37%29.94 "Hg
* Reported Jul 11 5:53 PM — Jul 26 5:53 PM, Centennial, Weather by CustomWeather, © 2016

Note: Actual official high and low records may vary slightly from our data, if they occured in-between our weather recording intervals... More about our weather records

Advertising

Centennial Weather History for the Previous 24 Hours

Scroll right to see more
 ConditionsComfort  
Time TempWeatherWind HumidityBarometerVisibility
5:53 PM
Tue, Jul 26
86 °FBroken clouds.6 mph14%29.92 "Hg10 mi
4:53 PM86 °FMostly cloudy.12 mph14%29.91 "Hg10 mi
3:53 PM87 °FMostly cloudy.13 mph14%29.90 "Hg10 mi
2:53 PM88 °FMostly cloudy.12 mph13%29.91 "Hg10 mi
1:53 PM88 °FOvercast.16 mph13%29.93 "Hg10 mi
12:53 PM87 °FMore clouds than sun.14 mph15%29.94 "Hg10 mi
11:53 AM88 °FMostly cloudy.9 mph13%29.93 "Hg10 mi
10:53 AM86 °FOvercast.No wind15%29.93 "Hg10 mi
9:53 AM84 °FPartly sunny.3 mph19%29.93 "Hg10 mi
8:53 AM80 °FScattered clouds.8 mph26%29.95 "Hg10 mi
7:53 AM74 °FPartly sunny.13 mph33%29.96 "Hg10 mi
6:53 AM73 °FPassing clouds.9 mph34%29.95 "Hg10 mi
5:53 AM67 °FPassing clouds.3 mph42%29.93 "Hg10 mi
4:53 AM69 °FPassing clouds.5 mph39%29.91 "Hg10 mi
3:53 AM71 °FPassing clouds.7 mph35%29.91 "Hg10 mi
2:53 AM74 °FPassing clouds.17 mph31%29.92 "Hg10 mi
1:53 AM74 °FPassing clouds.17 mph33%29.92 "Hg10 mi
12:53 AM73 °FPassing clouds.13 mph33%29.93 "Hg10 mi
11:53 PM
Mon, Jul 25
75 °FPassing clouds.17 mph33%29.95 "Hg10 mi
10:53 PM74 °FPassing clouds.29 mph37%29.96 "Hg10 mi
9:53 PM76 °FPassing clouds.24 mph31%29.95 "Hg10 mi
8:53 PM75 °FScattered clouds.20 mph31%29.93 "Hg10 mi
7:53 PM77 °FScattered clouds.22 mph32%29.93 "Hg10 mi
Weather by CustomWeather, © 2016

See weather overviewHow to use our weather pages